Location: Keppel Henge
(44.7900°N, 80.9447°W)
Time: 14:58:30
(UTC-05:00)

Envisat - Pass Details

Date: 11 October 2017
Orbit: 764 x 766 km, 98.2° (Epoch: 15 December)

Event Time Altitude Azimuth Distance (km) Brightness Sun altitude
Exits shadow 20:30:48 38° 96° (E) 1,152 3.4 -19.4°
Maximum altitude 20:31:42 42° 69° (ENE) 1,087 3.4 -19.6°
Drops below altitude 10° 20:36:29 10° 360° (N) 2,315 5.6 -20.4°
Sets 20:38:53 0° 353° (N) 3,246 6.5 -20.8°
